Regional Weather Roundup
Issued by NWS

Home | Current Version | Previous Version | Graphics & Text | Print | Product List | Glossary On
Versions: 1 2 3 4 5 6 7 8 9 10 11 12 13 14 15 16 17 18 19 20 21 22 23 24 25 26 27 28 29 30 31 32 33 34 35 36 37 38 39 40 41 42 43 44 45 46 47 48 49 50
451
ASUS43 KMPX 210601
RWRMN
WEATHER ROUNDUP FOR MINNESOTA
NATIONAL WEATHER SERVICE TWIN CITIES/CHANHASSEN MN
1200 AM CST SUN JAN 21 2018


NOTE: "FAIR" INDICATES FEW OR NO CLOUDS BELOW 12,000 FEET WITH NO
SIGNIFICANT WEATHER AND/OR OBSTRUCTIONS TO VISIBILITY. N/A MEANS
CURRENT SKY AND/OR WEATHER CONDITIONS ARE NOT AVAILABLE.

MNZ060>063-068>070-210700-
   Twin Cities Metro

CITY           SKY/WX    TMP DP  RH WIND       PRES   REMARKS
TWIN CITIES    CLOUDY    34  32  92 CALM      29.95S
6HR MIN TEMP:  33; 6HR MAX TEMP:  40;

ST PAUL        MOCLDY    32  30  92 CALM      29.96S
CRYSTAL        CLOUDY    37  28  70 CALM      29.94R
BLAINE         FAIR      37  32  81 NW7       29.94S
LAKEVILLE        N/A     27  27 100 CALM      29.94S
EDEN PRAIRIE   MOCLDY    34  30  85 N5        29.93S WCI  30
6HR MIN TEMP:  34; 6HR MAX TEMP:  40;

SOUTH ST PAUL  FAIR      32  31  96 CALM      29.95S
LAKE ELMO      FAIR      32  32 100 CALM      29.95S
$$
MNZ001>005-007-008-013>017-022>024-027-028-210700-
   Northwest Minnesota

CITY           SKY/WX    TMP DP  RH WIND       PRES   REMARKS
BEMIDJI        FOG       21  20  96 CALM      29.91R VSB 1/2
HALLOCK        FOG       12  10  92 CALM      29.92R VSB 1/2
ROSEAU         FAIR      21  18  86 SW3       29.90R
WARROAD        FAIR      21  18  86 S6        29.90R WCI  14
CROOKSTON      FAIR      21  19  93 W3        29.95R
FOSSTON        FAIR      19  18  93 SW3       29.94R
DETROIT LAKES  FAIR      23  23 100 CALM      29.94R
MOORHEAD       FAIR      28  27  93 W5        29.96R WCI  23
PARK RAPIDS    HAZE      18  12  77 CALM      29.91R VSB 1/2
MAHNOMEN       FAIR      22  21  96 S7        29.92R WCI  14
$$
MNZ006-009>011-018-025>026-210700-
   North Central Minnesota

CITY           SKY/WX    TMP DP  RH WIND       PRES   REMARKS
BAUDETTE       FAIR      20  19  96 SW5       29.89R WCI  13
FLAG ISLAND    FAIR      23  21  93 NW5       29.88R WCI  17
INTL FALLS     FAIR      24  21  88 W6        29.89R WCI  17
6HR MIN TEMP:  19; 6HR MAX TEMP:  28;

WASKISH        FAIR      27  25  93 SW7       29.90R WCI  19
BIG FORK       FAIR      19  18  93 CALM      29.90R
LONGVILLE      FAIR      19  18  93 CALM      29.92R
GRAND RAPIDS   FAIR      20  18  92 NW5       29.93R WCI  13
CRANE LAKE     FAIR      14  12  92 CALM      29.91S
ORR            FAIR      25  21  86 CALM      29.87S
COOK           CLOUDY    18  18 100 CALM      29.90S
WALKER         FAIR      28  25  88 CALM      29.91R
$$
MNZ012-019>021-037-210700-
   Northeast Minnesota

CITY           SKY/WX    TMP DP  RH WIND       PRES   REMARKS
DULUTH         FAIR      31  26  82 NW6       29.90R WCI  25
6HR MIN TEMP:  29; 6HR MAX TEMP:  37;

HIBBING        FOG       14  12  92 CALM      29.90R VSB 3/4
EVELETH        FAIR      15  12  88 CALM      29.91S FOG
DULUTH HARBOR  FAIR      34  28  80 CALM      29.93F
TWO HARBORS    FAIR      34  27  75 CALM      29.89R
SILVER BAY     FAIR      23  23 100 CALM      29.89R
GRAND MARAIS     N/A     31  31 100 CALM      29.93R
G MARAIS ARPRT FAIR      25  21  86 CALM      29.88R
$$
MNZ029>031-032-039>041-046>048-054>057-064-210700-
   West Central Minnesota

CITY           SKY/WX    TMP DP  RH WIND       PRES   REMARKS
FERGUS FALLS   FAIR      30  30 100 CALM      29.95S
WHEATON        CLOUDY    36  28  75 CALM      29.99R
MORRIS         CLOUDY    36  30  80 W6        29.95S
ALEXANDRIA     MOCLDY    31  28  89 CALM      29.95R
ELBOW LAKE     CLOUDY    31  29  93 SW3       29.96S
WADENA         FAIR      28  28 100 SW5       29.94R WCI  23
GLENWOOD       FAIR      34  30  86 W5        29.96R WCI  30
APPLETON       CLOUDY    36  30  80 CALM      29.96R
BENSON         CLOUDY    34  30  86 CALM      29.97S
ORTONVILLE     CLOUDY    36  28  75 NW5       29.96R
MADISON        CLOUDY    39  30  70 N5        29.96R
WILLMAR        FAIR      34  30  86 CALM      29.98R
$$
MNZ033>034-036-042>043-049>051-058-059-210700-
   Central Minnesota

CITY           SKY/WX    TMP DP  RH WIND       PRES   REMARKS
ST CLOUD       CLOUDY    32  30  92 CALM      29.95R
6HR MIN TEMP:  29; 6HR MAX TEMP:  36;

SAUK CENTRE      N/A     32  29  88 CALM      29.96R
PAYNESVILLE    CLOUDY    32  31  96 CALM      29.96R
AITKIN         FAIR      25  21  86 CALM      29.91S
PINE RIVER     FAIR      21  21 100 CALM      29.96R
BRAINERD       FAIR      27  25  92 SW6       29.94R WCI  20
STAPLES        FAIR      25  23  93 CALM      29.95R
LONG PRAIRIE   FAIR      30  28  93 CALM      29.95R
LITTLE FALLS   MOCLDY    30  27  86 CALM      29.96R
LITCHFIELD     FAIR      37  34  87 NW7       29.95S
BUFFALO        CLOUDY    36  30  80 W5        29.96S
MAPLE LAKE     CLOUDY    37  32  84 MISG      29.97R
HUTCHINSON     CLOUDY    35  32  90 CALM      29.96R
$$
MNZ037-044-045-052-053-210700-
   East Central Minnesota

CITY           SKY/WX    TMP DP  RH WIND       PRES   REMARKS
PRINCETON      FAIR      34  30  86 CALM      29.96R
MORA           FAIR      28  27  93 CALM      29.96S
CAMBRIDGE        N/A     36  27  69 W3        29.96R
RUSH CITY      CLOUDY    31  28  88 W3        29.95R
MOOSE LAKE     FAIR      30  27  86 SW3       29.91R
HINCKLEY       FAIR      27  27 100 CALM      29.95R
CLOQUET        FAIR      28  25  86 W6        29.91S WCI  22
MCGREGOR       FAIR      28  27  93 CALM      29.93R
$$
MNZ071>073-080-081-089-090-097-098-210700-
   Southwest Minnesota

CITY           SKY/WX    TMP DP  RH WIND       PRES   REMARKS
MONTEVIDEO     CLOUDY    37  28  70 N5        29.96R
GRANITE FALLS  CLOUDY    38  32  78 NW7       29.97R
CANBY          CLOUDY    36  29  76 CALM      29.96R
MARSHALL       CLOUDY    35  29  78 W5        29.96S WCI  31
REDWOOD FALLS  CLOUDY    34  30  85 W3        29.95R
OLIVIA         CLOUDY    34  30  86 N6        29.94F WCI  29
PIPESTONE      CLOUDY    34  28  80 NE5       29.92F WCI  30
WINDOM         CLOUDY    32  18  55 N3        29.93F
WORTHINGTON    CLOUDY    32  28  85 N8        29.93F WCI  25
JACKSON        CLOUDY    32  30  93 N9        29.92F WCI  24
TRACY          CLOUDY    35  31  83 CALM      29.95S
SLAYTON        CLOUDY    31  28  88 N5        29.94S WCI  27
$$
MNZ065>067-074>077-082>085-091>093-210700-
   South Central Minnesota

CITY           SKY/WX    TMP DP  RH WIND       PRES   REMARKS
MANKATO        MOCLDY    31  29  92 CALM      29.95S
NEW ULM        CLOUDY    28  27  93 SW3       29.95S
ST JAMES       CLOUDY    30  28  93 CALM      29.96S
FAIRMONT       CLOUDY    30  29  96 N7        29.93F WCI  23
FARIBAULT      FAIR      27  27 100 CALM      29.95S FOG
OWATONNA       FAIR      27  27 100 CALM      29.94S FOG
WASECA         FAIR      30  28  93 CALM      29.96R FOG
ALBERT LEA     FAIR      30  28  93 N3        29.93S FOG
$$
MNZ078>079-086>088-094>096-210700-
   Southeast Minnesota

CITY           SKY/WX    TMP DP  RH WIND       PRES   REMARKS
ROCHESTER      FAIR      32  30  92 NW3       29.93R
6HR MIN TEMP:  31; 6HR MAX TEMP:  37;

RED WING       FAIR      27  25  93 CALM      29.95R FOG
STANTON        FAIR      28  26  94 SW6       29.94S FOG     WCI  22
DODGE CENTER   FAIR      30  28  93 CALM      29.93S FOG
WINONA         FAIR      28  28 100 CALM      29.94R FOG
PRESTON        FAIR      32  30  90 CALM      29.93S
$$
ABBREVIATIONS USED IN REMARKS
   TC - TEMPERATURES IN CELSIUS
  WCI - WIND CHILL INDEX
   HX - HEAT INDEX
  VSB - VISIBILITY
$$




USA.gov is the U.S. government's official web portal to all federal, state and local government web resources and services.